Estación de Illapel

Ultimos registro cada 15 minutos 20
Estación Fecha / Hora Temperatura Humedad Lluvia Velocidad Dirección Radiación Presion
20 Illapel 08-05-2026 04:45 6,1 55 0 0 136 0 1003,8
19 Illapel 08-05-2026 04:30 6,2 55 0 0 136 0 1003,8
18 Illapel 08-05-2026 04:15 6,2 55 0 0 140 0 1003,8
17 Illapel 08-05-2026 04:00 6,3 55 0 0 139 0 1003,8
16 Illapel 08-05-2026 03:45 6,4 55 0 0 180 0 1003,8
15 Illapel 08-05-2026 03:30 6,8 55 0 0 180 0 1003,8
14 Illapel 08-05-2026 03:15 6,9 55 0 0 216 0 1003,8
13 Illapel 08-05-2026 03:00 7,2 56 0 0 216 0 1003,8
12 Illapel 08-05-2026 02:45 7,1 56 0 0,4 217 0 1003,8
11 Illapel 08-05-2026 02:30 6,8 58 0 0 225 0 1003,8
10 Illapel 08-05-2026 02:15 6,9 59 0 0 225 0 1003,8
9 Illapel 08-05-2026 02:00 6,9 59 0 0 227 0 1003,8
8 Illapel 08-05-2026 01:45 7,3 59 0 0 227 0 1003,8
7 Illapel 08-05-2026 01:30 7,2 60 0 0 227 0 1003,8
6 Illapel 08-05-2026 01:15 7,3 59 0 0 233 0 1003,8
5 Illapel 08-05-2026 01:00 7,5 60 0 0 233 0 1003,8
4 Illapel 08-05-2026 00:45 7,9 60 0 0 233 0 1003,8
3 Illapel 08-05-2026 00:30 8,2 60 0 0 233 0 1003,8
2 Illapel 08-05-2026 00:15 8,2 60 0 0 233 0 1003,8
1 Illapel 08-05-2026 00:00 8,3 60 0 0 233 0 1003,8